Location: D�rnast
(49.6426°N, 11.9755°E)
Time: 08:45:52
(UTC+00:00)

X-37B - Visible Passes

Search period start: 17 April 2021 00:00
Search period end: 27 April 2021 00:00
Orbit: 380 x 394 km, 45.0° (Epoch: 07 April)

Date Brightness Start Highest point End Pass type
(mag) Time Alt. Az. Time Alt. Az. Time Alt. Az.
17 Apr 2.9 02:40:06 13° S 02:40:58 14° SSE 02:42:45 10° ESE visible
18 Apr 2.1 03:16:28 12° SW 03:18:49 26° SSE 03:21:31 10° ESE visible
19 Apr 2.4 02:20:32 20° SSE 02:20:37 20° SSE 02:23:02 10° ESE visible
20 Apr 1.7 02:56:51 19° SW 02:58:33 31° S 03:01:26 10° ESE visible
21 Apr 2.1 02:00:54 24° SE 02:00:54 24° SE 02:03:04 10° ESE visible
22 Apr 1.4 02:37:13 26° SW 02:38:18 35° S 02:41:15 10° ESE visible
23 Apr 2.4 01:41:18 23° SE 01:41:18 23° SE 01:42:57 10° ESE visible
23 Apr 1.5 03:13:35 11° WSW 03:16:19 32° S 03:19:12 10° SE visible
24 Apr 1.3 02:17:43 34° SSW 02:18:04 35° S 02:21:02 10° ESE visible
25 Apr 3.0 01:21:57 16° ESE 01:21:57 16° ESE 01:22:47 10° ESE visible
25 Apr 1.7 02:54:14 16° WSW 02:56:03 26° SSW 02:58:48 10° SE visible
26 Apr 1.8 01:58:35 28° SSE 01:58:35 28° SSE 02:00:44 10° SE visible
